Location: Cruquius
(52.3348°N, 4.6319°E)
Time: 04:25:03
(UTC+00:00)

Cosmos 1975 - Pass Details

Date: 12 May 2021
Orbit: 541 x 561 km, 82.5° (Epoch: 14 June)

Event Time Altitude Azimuth Distance (km) Brightness Sun altitude
Rises 22:49:15 0° 346° (NNW) 2,717 8.1 -18.5°
Reaches altitude 10° 22:51:26 10° 343° (NNW) 1,819 6.7 -18.6°
Maximum altitude 22:55:22 61° 264° (W) 622 3.0 -18.7°
Enters shadow 22:56:27 42° 205° (SSW) 778 3.2 -18.7°
